Location: Unspecified
(51.0950°N, 12.9690°E)
Time: 21:23:55
(UTC+00:00)

Cosmos 1934 Rocket - Pass Details

Date: 28 October 2021
Orbit: 938 x 999 km, 83.0° (Epoch: 01 December)

Event Time Altitude Azimuth Distance (km) Brightness Sun altitude
Rises 17:14:53 0° 197° (SSW) 3,602 7.3 -13.9°
Reaches altitude 10° 17:17:24 10° 200° (SSW) 2,656 6.6 -14.3°
Maximum altitude 17:23:25 67° 283° (WNW) 1,017 4.3 -15.3°
Drops below altitude 10° 17:29:28 10° 6° (N) 2,666 6.2 -16.2°
Sets 17:32:00 0° 9° (N) 3,617 6.9 -16.6°
